Flag for Dominican Republic Weather past 2 weeks in Santiago de los Caballeros, Dominican Republic

Now
75 °F

Mild.


Feels Like: 75 °F
Forecast: 71 / 89 °F
Wind: N/A

Location: Santiago


UV Index: 7 (High)

Visibility: N/A


Pressure: 29.95 "Hg

Humidity: 83%

Dew point: 70 °F

Location of Santiago de los CaballerosLocation

Historic Weather in Santiago de los Caballeros

°F

Santiago de los Caballeros temperature yesterday

Maximum temperature yesterday: 90 °F (at 2:00 PM)
Minimum temperature yesterday: 72 °F (at 4:00 AM)
Average temperature yesterday: 79 °F

Past Weeks' High & Low Weather Summary

 TemperatureHumidityPressure
High91 °F (Apr 9, 3:00 PM)100% (Apr 1, 6:00 AM)30.12 "Hg (Apr 1, 6:00 AM)
Low64 °F (Apr 4, 5:00 AM)33% (Apr 13, 1:00 PM)29.83 "Hg (Apr 15, 4:00 PM)
Average78 °F75%29.99 "Hg
* Reported Midnight between Mar 31 and Apr 1 — Midnight between Apr 15 and Apr 16, Santiago de los Caballeros, Weather by CustomWeather, © 2014

Note: Actual official high and low records may vary slightly from our data, if they occured in-between our weather recording intervals... More about our weather records

Advertising

Historic Weather Conditions — Data for Previous 24 hours

 ConditionsComfort  
Time TempWeatherWind HumidityBarometerVisibility
12:00 AM
Apr 16
75 °FPartly cloudy.7 mph83%29.95 "HgN/A
11:00 PM
Apr 15
77 °FPassing clouds.8 mph79%29.95 "HgN/A
10:00 PM77 °FPartly cloudy.7 mph79%29.95 "HgN/A
9:00 PM77 °FPassing clouds.8 mph74%29.92 "HgN/A
7:00 PM82 °FPassing clouds.13 mph66%29.89 "HgN/A
6:00 PM86 °FPassing clouds.15 mph55%29.86 "HgN/A
5:00 PM73 °FPassing clouds.13 mph78%29.83 "HgN/A
4:00 PM90 °FPassing clouds.12 mph43%29.83 "HgN/A
3:00 PM90 °FPassing clouds.15 mph43%29.86 "HgN/A
2:00 PM90 °FPassing clouds.15 mph46%29.89 "HgN/A
1:00 PM88 °FPassing clouds.13 mph49%29.92 "HgN/A
12:00 PM86 °FPassing clouds.13 mph55%29.92 "HgN/A
11:00 AM84 °FPassing clouds.12 mph58%29.95 "HgN/A
10:00 AM82 °FPassing clouds.12 mph62%29.95 "HgN/A
9:00 AM79 °FPassing clouds.8 mph65%29.95 "HgN/A
8:00 AM73 °FScattered clouds.7 mph89%29.95 "HgN/A
7:00 AM72 °FPartly sunny.6 mph88%29.95 "HgN/A
6:00 AM72 °FPassing clouds.3 mph88%29.92 "HgN/A
4:00 AM72 °FPassing clouds.5 mph88%29.92 "HgN/A
3:00 AM77 °FPassing clouds.9 mph79%29.92 "HgN/A
2:00 AM73 °FPassing clouds.7 mph89%29.92 "HgN/A
1:00 AM73 °FPassing clouds.6 mph89%29.95 "HgN/A
Weather by CustomWeather, © 2014

See weather overview